| time (UTC) | temp F | wind direction | speed knots | gust knots | rain 1hr in | rain 24hr in | rain mn in | humidity % | barometer mb |
| 20260506201131 | 68 | 251 | 4.3 | 8.7 | 0.00 | 0.00 | 0.00 | 57 | 1018.8 |
| 20260506200631 | 68 | 129 | 3.5 | 10.4 | 0.00 | 0.00 | 0.00 | 52 | 1018.9 |
| 20260506200132 | 68 | 207 | 2.6 | 12.2 | 0.00 | 0.00 | 0.00 | 57 | 1018.9 |
| 20260506195631 | 68 | 277 | 5.2 | 12.2 | 0.00 | 0.00 | 0.00 | 53 | 1019.4 |
| 20260506195131 | 67 | 355 | 1.7 | 12.2 | 0.00 | 0.00 | 0.00 | 57 | 1019.2 |
| 20260506194631 | 67 | 176 | 1.7 | 10.4 | 0.00 | 0.00 | 0.00 | 58 | 1019.3 |
| 20260506194131 | 67 | 194 | 2.6 | 10.4 | 0.00 | 0.00 | 0.00 | 58 | 1019.3 |
| 20260506193631 | 66 | 197 | 0.9 | 10.4 | 0.00 | 0.00 | 0.00 | 56 | 1019.3 |
| 20260506192631 | 67 | 246 | 7.0 | 7.0 | 0.00 | 0.00 | 0.00 | 59 | 1019.5 |
| 20260506191631 | 65 | 344 | 1.7 | 10.4 | 0.00 | 0.00 | 0.00 | 63 | 1019.5 |
| 20260506191131 | 65 | 273 | 1.7 | 10.4 | 0.00 | 0.00 | 0.00 | 59 | 1019.4 |
| 20260506190631 | 65 | 244 | 9.6 | 10.4 | 0.00 | 0.00 | 0.00 | 60 | 1019.5 |
| 20260506190131 | 65 | 244 | 4.3 | 9.6 | 0.00 | 0.00 | 0.00 | 60 | 1019.5 |
| 20260506185630 | 64 | 172 | 1.7 | 10.4 | 0.00 | 0.00 | 0.00 | 62 | 1019.8 |
| 20260506185131 | 64 | 274 | 0.0 | 11.3 | 0.00 | 0.00 | 0.00 | 59 | 1019.7 |
| 20260506184630 | 65 | 215 | 4.3 | 11.3 | 0.00 | 0.00 | 0.00 | 58 | 1020.1 |
| 20260506184130 | 65 | 289 | 0.9 | 8.7 | 0.00 | 0.00 | 0.00 | 62 | 1020.1 |
| 20260506183631 | 64 | 223 | 0.9 | 8.7 | 0.00 | 0.01 | 0.00 | 61 | 1019.8 |
| 20260506183130 | 65 | 249 | 3.5 | 7.0 | 0.00 | 0.01 | 0.00 | 63 | 1020.1 |
| 20260506182630 | 64 | 226 | 1.7 | 7.0 | 0.00 | 0.03 | 0.00 | 63 | 1019.9 |
| 20260506182130 | 63 | 236 | 1.7 | 8.7 | 0.00 | 0.07 | 0.00 | 63 | 1019.8 |
| 20260506181630 | 63 | 278 | 6.1 | 8.7 | 0.00 | 0.08 | 0.00 | 62 | 1019.9 |
| 20260506181130 | 62 | 238 | 0.0 | 8.7 | 0.00 | 0.08 | 0.00 | 63 | 1019.7 |
| 20260506180630 | 62 | 223 | 2.6 | 8.7 | 0.00 | 0.08 | 0.00 | 64 | 1019.7 |
| 20260506180130 | 62 | 211 | 2.6 | 7.0 | 0.00 | 0.08 | 0.00 | 64 | 1019.7 |
| 20260506175630 | 62 | 243 | 2.6 | 7.0 | 0.00 | 0.08 | 0.00 | 64 | 1019.7 |
| 20260506175130 | 62 | 234 | 0.9 | 7.8 | 0.00 | 0.09 | 0.00 | 64 | 1019.7 |
| 20260506173630 | 61 | 214 | 5.2 | 7.8 | 0.00 | 0.10 | 0.00 | 69 | 1019.8 |
| 20260506173130 | 60 | 246 | 3.5 | 7.0 | 0.00 | 0.10 | 0.00 | 67 | 1019.5 |
| 20260506172629 | 60 | 230 | 2.6 | 7.8 | 0.00 | 0.10 | 0.00 | 66 | 1019.6 |
| 20260506171630 | 59 | 250 | 1.7 | 8.7 | 0.00 | 0.10 | 0.00 | 71 | 1019.8 |
| 20260506170629 | 58 | 244 | 3.5 | 7.8 | 0.00 | 0.10 | 0.00 | 71 | 1019.3 |
| 20260506170130 | 59 | 229 | 4.3 | 7.8 | 0.00 | 0.11 | 0.00 | 68 | 1019.5 |
| 20260506165630 | 59 | 252 | 3.5 | 7.8 | 0.00 | 0.11 | 0.00 | 69 | 1019.5 |
| 20260506164629 | 58 | 267 | 1.7 | 7.8 | 0.00 | 0.12 | 0.00 | 71 | 1019.3 |
| 20260506164129 | 58 | 242 | 3.5 | 7.8 | 0.00 | 0.12 | 0.00 | 69 | 1019.3 |
| 20260506163129 | 58 | 245 | 6.1 | 8.7 | 0.00 | 0.13 | 0.00 | 71 | 1019.3 |
| 20260506162629 | 58 | 232 | 1.7 | 7.0 | 0.00 | 0.13 | 0.00 | 73 | 1019.5 |
| 20260506162129 | 57 | 192 | 1.7 | 7.0 | 0.00 | 0.14 | 0.00 | 72 | 1019.1 |
| 20260506161629 | 57 | 223 | 0.0 | 3.5 | 0.00 | 0.14 | 0.00 | 75 | 1019.0 |
| 20260506161129 | 56 | 190 | 0.9 | 3.5 | 0.00 | 0.15 | 0.00 | 76 | 1019.1 |
| 20260506160629 | 55 | 191 | 0.0 | 3.5 | 0.00 | 0.16 | 0.00 | 76 | 1018.9 |
| 20260506160129 | 54 | 176 | 0.9 | 4.3 | 0.00 | 0.19 | 0.00 | 79 | 1018.9 |
| 20260506155629 | 54 | 240 | 0.9 | 5.2 | 0.00 | 0.20 | 0.00 | 78 | 1018.7 |
| 20260506155129 | 53 | 243 | 3.5 | 5.2 | 0.00 | 0.21 | 0.00 | 80 | 1018.7 |
| 20260506154629 | 52 | 197 | 0.9 | 4.3 | 0.00 | 0.21 | 0.00 | 84 | 1018.6 |
| 20260506154129 | 51 | 238 | 0.9 | 4.3 | 0.00 | 0.22 | 0.00 | 88 | 1018.4 |
| 20260506153628 | 50 | 178 | 0.0 | 2.6 | 0.00 | 0.22 | 0.00 | 90 | 1018.4 |
| 20260506153129 | 49 | 149 | 0.0 | 0.0 | 0.00 | 0.22 | 0.00 | 93 | 1018.1 |
| 20260506152629 | 48 | 149 | 0.0 | 0.0 | 0.00 | 0.22 | 0.00 | 93 | 1018.2 |
| 20260506152128 | 47 | 149 | 0.0 | 0.0 | 0.00 | 0.22 | 0.00 | 94 | 1017.9 |
| 20260506151628 | 47 | 128 | 0.0 | 0.0 | 0.00 | 0.22 | 0.00 | 94 | 1017.9 |
| 20260506151128 | 46 | 128 | 0.0 | 0.0 | 0.00 | 0.22 | 0.00 | 94 | 1017.8 |
| 20260506150628 | 45 | 128 | 0.0 | 0.0 | 0.00 | 0.22 | 0.00 | 94 | 1017.7 |
| 20260506150129 | 45 | 128 | 0.0 | 0.0 | 0.00 | 0.22 | 0.00 | 94 | 1017.7 |
| 20260506145628 | 44 | 128 | 0.0 | 0.0 | 0.00 | 0.22 | 0.00 | 94 | 1017.7 |
| 20260506145128 | 44 | 91 | 0.0 | 0.0 | 0.00 | 0.22 | 0.00 | 94 | 1017.7 |
| 20260506144628 | 44 | 91 | 0.0 | 0.0 | 0.00 | 0.22 | 0.00 | 94 | 1017.6 |
| 20260506144128 | 44 | 91 | 0.0 | 0.0 | 0.00 | 0.22 | 0.00 | 94 | 1017.7 |
| 20260506143628 | 43 | 91 | 0.0 | 0.9 | 0.00 | 0.22 | 0.00 | 94 | 1017.6 |
| 20260506143128 | 43 | 91 | 0.0 | 2.6 | 0.00 | 0.22 | 0.00 | 94 | 1017.5 |
| 20260506142628 | 42 | 91 | 0.9 | 3.5 | 0.00 | 0.22 | 0.00 | 94 | 1017.2 |
| 20260506141628 | 41 | 91 | 2.6 | 3.5 | 0.00 | 0.22 | 0.00 | 94 | 1017.2 |
| 20260506141127 | 40 | 74 | 1.7 | 3.5 | 0.00 | 0.22 | 0.00 | 94 | 1016.8 |
| 20260506140628 | 40 | 74 | 2.6 | 3.5 | 0.00 | 0.23 | 0.00 | 94 | 1016.8 |
| 20260506140128 | 39 | 74 | 3.5 | 6.1 | 0.00 | 0.24 | 0.00 | 94 | 1016.8 |
| 20260506135627 | 38 | 71 | 2.6 | 6.1 | 0.00 | 0.24 | 0.00 | 94 | 1016.8 |
| 20260506135127 | 38 | 81 | 3.5 | 6.1 | 0.00 | 0.24 | 0.00 | 94 | 1016.9 |
| 20260506134627 | 37 | 53 | 2.6 | 6.1 | 0.00 | 0.25 | 0.00 | 94 | 1016.5 |
| 20260506134128 | 36 | 69 | 1.7 | 4.3 | 0.00 | 0.25 | 0.00 | 94 | 1016.4 |
| 20260506133627 | 35 | 42 | 2.6 | 4.3 | 0.00 | 0.25 | 0.00 | 93 | 1016.1 |
| 20260506133127 | 35 | 53 | 1.7 | 4.3 | 0.00 | 0.25 | 0.00 | 93 | 1016.2 |
| 20260506132627 | 35 | 28 | 2.6 | 4.3 | 0.00 | 0.25 | 0.00 | 93 | 1016.1 |
| 20260506132127 | 35 | 55 | 2.6 | 5.2 | 0.00 | 0.25 | 0.00 | 93 | 1016.0 |
| 20260506131627 | 35 | 46 | 2.6 | 5.2 | 0.00 | 0.25 | 0.00 | 93 | 1016.1 |
| 20260506130127 | 34 | 44 | 2.6 | 4.3 | 0.00 | 0.27 | 0.00 | 93 | 1015.9 |
| 20260506125127 | 34 | 32 | 2.6 | 4.3 | 0.00 | 0.27 | 0.00 | 93 | 1016.0 |
| 20260506124627 | 35 | 39 | 2.6 | 4.3 | 0.00 | 0.27 | 0.00 | 93 | 1016.0 |
| 20260506124127 | 35 | 42 | 3.5 | 4.3 | 0.00 | 0.27 | 0.00 | 93 | 1015.9 |
| 20260506123127 | 34 | 32 | 2.6 | 4.3 | 0.00 | 0.29 | 0.00 | 93 | 1015.7 |
| 20260506122626 | 34 | 75 | 2.6 | 4.3 | 0.00 | 0.29 | 0.00 | 93 | 1015.7 |
| 20260506121627 | 35 | 42 | 3.5 | 4.3 | 0.00 | 0.29 | 0.00 | 93 | 1015.7 |
| 20260506121127 | 35 | 65 | 2.6 | 4.3 | 0.00 | 0.29 | 0.00 | 92 | 1015.7 |
| 20260506120626 | 35 | 36 | 3.5 | 4.3 | 0.00 | 0.30 | 0.00 | 93 | 1015.6 |
| 20260506120126 | 35 | 55 | 3.5 | 4.3 | 0.00 | 0.31 | 0.00 | 93 | 1015.6 |
| 20260506115626 | 35 | 38 | 2.6 | 4.3 | 0.00 | 0.33 | 0.00 | 93 | 1016.0 |
| 20260506115126 | 35 | 53 | 2.6 | 4.3 | 0.00 | 0.34 | 0.00 | 93 | 1015.9 |
| 20260506114626 | 36 | 51 | 2.6 | 4.3 | 0.00 | 0.34 | 0.00 | 93 | 1016.0 |
| 20260506114126 | 35 | 74 | 1.7 | 4.3 | 0.00 | 0.34 | 0.00 | 93 | 1015.8 |
| 20260506113626 | 36 | 61 | 1.7 | 4.3 | 0.00 | 0.34 | 0.00 | 93 | 1016.0 |
| 20260506113126 | 36 | 12 | 3.5 | 4.3 | 0.00 | 0.34 | 0.00 | 93 | 1015.9 |
| 20260506111626 | 36 | 74 | 3.5 | 4.3 | 0.00 | 0.34 | 0.00 | 92 | 1015.8 |
| 20260506110625 | 36 | 69 | 3.5 | 5.2 | 0.00 | 0.35 | 0.00 | 92 | 1015.8 |
| 20260506110126 | 36 | 65 | 4.3 | 5.2 | 0.00 | 0.35 | 0.00 | 92 | 1015.8 |
| 20260506105126 | 36 | 32 | 3.5 | 4.3 | 0.00 | 0.35 | 0.00 | 92 | 1016.3 |
| 20260506104626 | 36 | 52 | 2.6 | 4.3 | 0.00 | 0.35 | 0.00 | 92 | 1016.2 |
| 20260506104126 | 36 | 32 | 2.6 | 4.3 | 0.00 | 0.35 | 0.00 | 92 | 1016.4 |
| 20260506103625 | 36 | 19 | 2.6 | 5.2 | 0.00 | 0.35 | 0.00 | 92 | 1016.3 |
| 20260506103125 | 36 | 42 | 4.3 | 5.2 | 0.00 | 0.35 | 0.00 | 92 | 1016.2 |
| 20260506102625 | 36 | 50 | 1.7 | 3.5 | 0.00 | 0.36 | 0.00 | 92 | 1016.2 |
| 20260506102125 | 36 | 56 | 2.6 | 4.3 | 0.00 | 0.37 | 0.00 | 92 | 1016.2 |
| 20260506101625 | 36 | 65 | 1.7 | 4.3 | 0.00 | 0.37 | 0.00 | 92 | 1016.1 |
| 20260506101125 | 36 | 62 | 2.6 | 4.3 | 0.00 | 0.37 | 0.00 | 92 | 1016.1 |
| 20260506100625 | 36 | 44 | 3.5 | 3.5 | 0.00 | 0.37 | 0.00 | 92 | 1016.0 |
| 20260506100125 | 37 | 30 | 1.7 | 3.5 | 0.00 | 0.37 | 0.00 | 91 | 1016.1 |
| 20260506095625 | 37 | 26 | 2.6 | 3.5 | 0.00 | 0.38 | 0.00 | 91 | 1015.8 |
| 20260506095125 | 37 | 36 | 2.6 | 3.5 | 0.00 | 0.38 | 0.00 | 91 | 1015.9 |
| 20260506094125 | 37 | 34 | 3.5 | 3.5 | 0.00 | 0.39 | 0.00 | 91 | 1015.8 |
| 20260506093624 | 37 | 37 | 1.7 | 3.5 | 0.00 | 0.39 | 0.00 | 91 | 1015.9 |
| 20260506092625 | 38 | 22 | 2.6 | 3.5 | 0.00 | 0.41 | 0.00 | 91 | 1016.0 |
| 20260506092125 | 38 | 21 | 1.7 | 3.5 | 0.00 | 0.41 | 0.00 | 91 | 1016.1 |
| 20260506091124 | 38 | 15 | 3.5 | 4.3 | 0.00 | 0.43 | 0.00 | 91 | 1016.1 |
| 20260506090624 | 38 | 19 | 3.5 | 4.3 | 0.00 | 0.43 | 0.00 | 91 | 1016.1 |
| 20260506090125 | 38 | 163 | 0.9 | 4.3 | 0.00 | 0.44 | 0.00 | 91 | 1016.1 |
| 20260506085625 | 39 | 194 | 0.9 | 2.6 | 0.00 | 0.44 | 0.00 | 91 | 1015.7 |
| 20260506085124 | 39 | 198 | 0.9 | 2.6 | 0.00 | 0.45 | 0.00 | 91 | 1015.8 |
| 20260506084624 | 39 | 201 | 0.9 | 2.6 | 0.00 | 0.45 | 0.00 | 90 | 1015.9 |
| 20260506084124 | 40 | 232 | 0.0 | 0.0 | 0.00 | 0.45 | 0.00 | 91 | 1015.9 |
| 20260506083624 | 40 | 232 | 0.0 | 0.0 | 0.00 | 0.45 | 0.00 | 91 | 1016.0 |
| 20260506082624 | 41 | 232 | 0.0 | 0.0 | 0.00 | 0.45 | 0.00 | 91 | 1016.3 |
| 20260506082124 | 41 | 232 | 0.0 | 0.0 | 0.00 | 0.45 | 0.00 | 91 | 1016.4 |
| 20260506081624 | 41 | 232 | 0.0 | 0.0 | 0.00 | 0.45 | 0.00 | 91 | 1016.6 |
| 20260506081124 | 41 | 232 | 0.0 | 0.0 | 0.00 | 0.45 | 0.00 | 91 | 1016.5 |
| 20260506080624 | 41 | 232 | 0.0 | 0.0 | 0.00 | 0.45 | 0.00 | 91 | 1016.6 |
| 20260506080124 | 42 | 232 | 0.0 | 0.0 | 0.00 | 0.45 | 0.00 | 91 | 1016.6 |
| 20260506073123 | 44 | 232 | 0.0 | 0.0 | 0.00 | 0.45 | 0.00 | 91 | 1016.8 |
| 20260506072624 | 45 | 232 | 0.0 | 0.9 | 0.00 | 0.45 | 0.00 | 92 | 1016.9 |
| 20260506071623 | 45 | 232 | 0.0 | 2.6 | 0.00 | 0.45 | 0.00 | 92 | 1017.0 |
| 20260506071123 | 45 | 232 | 0.0 | 4.3 | 0.00 | 0.45 | 0.00 | 92 | 1017.0 |
| 20260506070623 | 45 | 232 | 1.7 | 4.3 | 0.00 | 0.45 | 0.00 | 92 | 1017.0 |
| 20260506070154 | 45 | 237 | 1.7 | 2.6 | 0.00 | 0.45 | 0.00 | 91 | 1016.9 |
| 20260506062123 | 45 | 238 | 0.0 | 2.6 | 0.00 | 0.45 | 0.45 | 91 | 1016.5 |
| 20260506061623 | 45 | 238 | 0.0 | 3.5 | 0.00 | 0.45 | 0.45 | 91 | 1016.5 |
| 20260506061122 | 45 | 238 | 1.7 | 3.5 | 0.00 | 0.45 | 0.45 | 91 | 1016.4 |
| 20260506060623 | 45 | 238 | 1.7 | 3.5 | 0.00 | 0.45 | 0.45 | 91 | 1016.6 |
| 20260506060123 | 46 | 238 | 0.9 | 3.5 | 0.00 | 0.45 | 0.45 | 91 | 1016.8 |
| 20260506051122 | 46 | 240 | 0.0 | 4.3 | 0.00 | 0.45 | 0.45 | 90 | 1016.7 |
| 20260506050622 | 46 | 243 | 0.0 | 4.3 | 0.00 | 0.45 | 0.45 | 90 | 1016.7 |
| 20260506050152 | 46 | 246 | 2.6 | 4.3 | 0.00 | 0.45 | 0.45 | 90 | 1016.7 |
| 20260506044622 | 46 | 236 | 0.9 | 5.2 | 0.00 | 0.45 | 0.45 | 89 | 1016.3 |
| 20260506044121 | 46 | 235 | 0.9 | 4.3 | 0.00 | 0.45 | 0.45 | 89 | 1016.3 |
| 20260506043622 | 46 | 242 | 0.9 | 7.0 | 0.00 | 0.45 | 0.45 | 88 | 1016.1 |
| 20260506042622 | 46 | 240 | 3.5 | 4.3 | 0.00 | 0.45 | 0.45 | 88 | 1016.1 |
| 20260506041621 | 46 | 229 | 0.0 | 6.1 | 0.00 | 0.45 | 0.45 | 88 | 1016.0 |
| 20260506040622 | 46 | 239 | 0.0 | 2.6 | 0.00 | 0.45 | 0.45 | 87 | 1015.9 |
| 20260506040152 | 46 | 238 | 1.7 | 2.6 | 0.00 | 0.45 | 0.45 | 87 | 1015.8 |
| 20260506035652 | 46 | 240 | 0.0 | 3.5 | 0.00 | 0.45 | 0.45 | 87 | 1015.8 |
| 20260506034651 | 47 | 225 | 0.0 | 5.2 | 0.00 | 0.45 | 0.45 | 87 | 1015.6 |
| 20260506034151 | 47 | 223 | 2.6 | 5.2 | 0.00 | 0.45 | 0.45 | 87 | 1015.5 |
| 20260506033651 | 47 | 242 | 0.0 | 4.3 | 0.00 | 0.45 | 0.45 | 86 | 1015.5 |
| 20260506033151 | 47 | 244 | 0.0 | 4.3 | 0.00 | 0.45 | 0.45 | 86 | 1015.4 |
| 20260506032151 | 47 | 240 | 0.9 | 5.2 | 0.00 | 0.45 | 0.45 | 86 | 1015.3 |
| 20260506031651 | 47 | 240 | 1.7 | 5.2 | 0.00 | 0.45 | 0.45 | 86 | 1015.2 |
| 20260506031151 | 47 | 240 | 3.5 | 7.0 | 0.00 | 0.45 | 0.45 | 86 | 1015.2 |
| 20260506025650 | 47 | 238 | 5.2 | 7.8 | 0.00 | 0.45 | 0.45 | 85 | 1014.8 |
| 20260506025150 | 47 | 217 | 3.5 | 7.8 | 0.00 | 0.45 | 0.45 | 85 | 1014.7 |
| 20260506024151 | 47 | 253 | 4.3 | 7.8 | 0.00 | 0.45 | 0.45 | 84 | 1014.7 |
| 20260506023650 | 48 | 242 | 3.5 | 8.7 | 0.00 | 0.45 | 0.45 | 84 | 1014.6 |
| 20260506023150 | 48 | 234 | 0.0 | 8.7 | 0.00 | 0.45 | 0.45 | 83 | 1014.5 |
| 20260506022150 | 48 | 231 | 2.6 | 8.7 | 0.00 | 0.45 | 0.45 | 83 | 1014.5 |
| 20260506021650 | 48 | 228 | 2.6 | 8.7 | 0.00 | 0.45 | 0.45 | 82 | 1014.4 |
| 20260506020650 | 48 | 240 | 5.2 | 8.7 | 0.00 | 0.45 | 0.45 | 81 | 1014.4 |
| 20260506015650 | 49 | 225 | 2.6 | 7.0 | 0.00 | 0.45 | 0.45 | 80 | 1014.3 |
| 20260506015150 | 49 | 231 | 3.5 | 9.6 | 0.00 | 0.45 | 0.45 | 80 | 1014.3 |
| 20260506014650 | 49 | 228 | 2.6 | 9.6 | 0.00 | 0.45 | 0.45 | 80 | 1014.3 |
| 20260506014149 | 49 | 229 | 6.1 | 8.7 | 0.00 | 0.45 | 0.45 | 79 | 1014.2 |
| 20260506013650 | 49 | 219 | 1.7 | 10.4 | 0.00 | 0.45 | 0.45 | 78 | 1014.2 |
| 20260506013150 | 49 | 219 | 5.2 | 10.4 | 0.00 | 0.45 | 0.45 | 78 | 1014.2 |
| 20260506012649 | 49 | 243 | 5.2 | 7.8 | 0.00 | 0.45 | 0.45 | 77 | 1014.2 |
| 20260506012150 | 50 | 221 | 6.1 | 12.2 | 0.00 | 0.45 | 0.45 | 75 | 1014.2 |
| 20260506011649 | 50 | 234 | 0.9 | 12.2 | 0.00 | 0.45 | 0.45 | 74 | 1014.1 |
| 20260506011149 | 51 | 230 | 5.2 | 11.3 | 0.00 | 0.45 | 0.45 | 74 | 1014.3 |
| 20260506010650 | 51 | 225 | 7.0 | 12.2 | 0.00 | 0.45 | 0.45 | 75 | 1014.2 |
| 20260506005649 | 50 | 236 | 2.6 | 10.4 | 0.00 | 0.45 | 0.45 | 74 | 1013.9 |
| 20260506005149 | 50 | 197 | 4.3 | 10.4 | 0.00 | 0.45 | 0.45 | 74 | 1013.9 |
| 20260506004149 | 51 | 216 | 7.0 | 11.3 | 0.00 | 0.45 | 0.45 | 71 | 1014.2 |
| 20260506003649 | 51 | 215 | 4.3 | 12.2 | 0.00 | 0.45 | 0.45 | 72 | 1014.2 |
| 20260506003149 | 52 | 226 | 5.2 | 13.0 | 0.00 | 0.45 | 0.45 | 70 | 1014.2 |
| 20260506002649 | 53 | 229 | 6.1 | 14.8 | 0.00 | 0.45 | 0.45 | 70 | 1014.4 |
| 20260506002149 | 53 | 207 | 1.7 | 14.8 | 0.00 | 0.45 | 0.45 | 69 | 1014.3 |
| 20260506001648 | 52 | 215 | 2.6 | 11.3 | 0.00 | 0.45 | 0.45 | 71 | 1013.8 |
| 20260506001148 | 51 | 247 | 3.5 | 11.3 | 0.00 | 0.45 | 0.45 | 74 | 1013.9 |
| 20260506000648 | 51 | 210 | 4.3 | 11.3 | 0.00 | 0.45 | 0.45 | 73 | 1014.1 |
| 20260506000148 | 52 | 219 | 8.7 | 13.0 | 0.00 | 0.45 | 0.45 | 72 | 1013.9 |
| 20260505235648 | 52 | 225 | 5.2 | 15.6 | 0.00 | 0.45 | 0.45 | 71 | 1014.1 |
| 20260505235148 | 53 | 251 | 4.3 | 15.6 | 0.00 | 0.45 | 0.45 | 69 | 1014.0 |
| 20260505234649 | 53 | 263 | 11.3 | 13.9 | 0.00 | 0.45 | 0.45 | 70 | 1014.1 |
| 20260505233649 | 53 | 237 | 8.7 | 13.9 | 0.00 | 0.45 | 0.45 | 71 | 1014.1 |
| 20260505232648 | 54 | 244 | 6.1 | 14.8 | 0.00 | 0.45 | 0.45 | 68 | 1014.3 |
| 20260505232148 | 54 | 230 | 6.1 | 12.2 | 0.00 | 0.45 | 0.45 | 73 | 1014.3 |
| 20260505231648 | 53 | 210 | 5.2 | 12.2 | 0.00 | 0.45 | 0.45 | 71 | 1014.1 |
| 20260505231148 | 53 | 242 | 8.7 | 13.0 | 0.00 | 0.45 | 0.45 | 68 | 1014.2 |
| 20260505230648 | 55 | 201 | 6.1 | 16.5 | 0.00 | 0.45 | 0.45 | 66 | 1014.4 |
| 20260505230148 | 56 | 203 | 6.1 | 16.5 | 0.00 | 0.45 | 0.45 | 66 | 1014.7 |
| 20260505225147 | 54 | 204 | 4.3 | 13.0 | 0.00 | 0.45 | 0.45 | 74 | 1014.4 |
| 20260505224647 | 53 | 221 | 1.7 | 13.0 | 0.00 | 0.45 | 0.45 | 71 | 1014.3 |
| 20260505224147 | 55 | 201 | 7.8 | 13.9 | 0.00 | 0.45 | 0.45 | 67 | 1014.6 |
| 20260505223647 | 56 | 217 | 7.8 | 14.8 | 0.00 | 0.45 | 0.45 | 68 | 1014.8 |
| 20260505223147 | 56 | 237 | 9.6 | 14.8 | 0.00 | 0.45 | 0.45 | 71 | 1014.9 |
| 20260505222647 | 55 | 240 | 7.8 | 13.9 | 0.00 | 0.45 | 0.45 | 72 | 1014.7 |
| 20260505222147 | 54 | 229 | 9.6 | 13.9 | 0.00 | 0.45 | 0.45 | 70 | 1014.7 |
| 20260505221647 | 55 | 190 | 3.5 | 12.2 | 0.00 | 0.45 | 0.45 | 73 | 1014.8 |
| 20260505220647 | 54 | 269 | 7.8 | 13.0 | 0.00 | 0.45 | 0.45 | 77 | 1014.9 |
| 20260505220147 | 54 | 225 | 3.5 | 13.0 | 0.00 | 0.45 | 0.45 | 77 | 1014.9 |
| 20260505215647 | 54 | 227 | 3.5 | 13.0 | 0.00 | 0.45 | 0.45 | 77 | 1014.7 |
| 20260505215147 | 54 | 242 | 7.0 | 13.0 | 0.00 | 0.45 | 0.45 | 79 | 1014.7 |
| 20260505214647 | 53 | 224 | 3.5 | 13.0 | 0.00 | 0.45 | 0.45 | 82 | 1014.8 |
| 20260505214147 | 53 | 246 | 6.1 | 14.8 | 0.00 | 0.45 | 0.45 | 79 | 1014.8 |
| 20260505212646 | 52 | 217 | 3.5 | 12.2 | 0.00 | 0.45 | 0.45 | 84 | 1014.7 |
| 20260505212147 | 52 | 240 | 7.0 | 12.2 | 0.00 | 0.45 | 0.45 | 88 | 1014.8 |
| 20260505211147 | 50 | 232 | 2.6 | 11.3 | 0.00 | 0.45 | 0.45 | 88 | 1014.5 |
| 20260505210646 | 50 | 213 | 6.1 | 13.0 | 0.00 | 0.45 | 0.45 | 91 | 1014.6 |
| 20260505210146 | 49 | 215 | 7.0 | 13.0 | 0.00 | 0.45 | 0.45 | 91 | 1014.6 |
| 20260505205646 | 49 | 214 | 7.0 | 12.2 | 0.00 | 0.45 | 0.45 | 92 | 1014.4 |
| 20260505205146 | 49 | 243 | 7.0 | 10.4 | 0.00 | 0.45 | 0.45 | 94 | 1014.3 |
| 20260505204646 | 49 | 238 | 4.3 | 10.4 | 0.00 | 0.45 | 0.45 | 94 | 1014.4 |
| 20260505204146 | 49 | 181 | 2.6 | 10.4 | 0.00 | 0.45 | 0.45 | 94 | 1014.4 |
| 20260505203646 | 48 | 226 | 6.1 | 14.8 | 0.00 | 0.45 | 0.45 | 94 | 1014.5 |
| 20260505203147 | 49 | 194 | 7.8 | 14.8 | 0.00 | 0.45 | 0.45 | 95 | 1014.4 |
| 20260505202646 | 49 | 226 | 2.6 | 14.8 | 0.00 | 0.45 | 0.45 | 95 | 1014.4 |
| 20260505202146 | 49 | 236 | 3.5 | 9.6 | 0.00 | 0.45 | 0.45 | 95 | 1014.3 |
| 20260505201646 | 48 | 234 | 6.1 | 9.6 | 0.00 | 0.45 | 0.45 | 95 | 1014.4 |